Radiation Dose at Monitoring Post of Fukushima Daini Nuclear Power Station
Date,Time,MP-1(microSv/h),MP-2(microSv/h),MP-3(microSv/h),MP-4(microSv/h),MP-5(microSv/h),MP-6(microSv/h),MP-7(microSv/h),Wind Direction,Wind Velocity(m/s),Rain
2024/01/19,00:00,0.150,0.135,0.212,0.202,0.208,0.121,0.077,north-northwest,7.3,No
2024/01/19,00:10,0.150,0.135,0.213,0.203,0.208,0.121,0.078,north-northwest,6.3,No
2024/01/19,00:20,0.150,0.136,0.213,0.202,0.209,0.121,0.078,north-northwest,5.6,No
2024/01/19,00:30,0.150,0.135,0.213,0.204,0.208,0.122,0.078,north-northwest,6.4,No
2024/01/19,00:40,0.150,0.135,0.212,0.203,0.207,0.120,0.078,north-northwest,6.6,No
2024/01/19,00:50,0.151,0.135,0.212,0.202,0.209,0.121,0.077,north-northwest,7.4,No
2024/01/19,01:00,0.151,0.136,0.213,0.202,0.208,0.121,0.077,north-northwest,6.6,No
2024/01/19,01:10,0.149,0.137,0.212,0.203,0.209,0.120,0.077,north-northwest,7.0,No
2024/01/19,01:20,0.150,0.136,0.212,0.201,0.208,0.122,0.078,north-northwest,7.0,No
2024/01/19,01:30,0.150,0.135,0.212,0.202,0.209,0.122,0.077,north-northwest,7.3,No
2024/01/19,01:40,0.150,0.137,0.213,0.204,0.208,0.122,0.078,north-northwest,7.9,No
2024/01/19,01:50,0.151,0.136,0.212,0.203,0.209,0.122,0.078,north-northwest,7.8,No
2024/01/19,02:00,0.150,0.136,0.213,0.202,0.208,0.122,0.078,north-northwest,7.3,No
2024/01/19,02:10,0.150,0.136,0.212,0.203,0.209,0.121,0.078,north-northwest,7.1,No
2024/01/19,02:20,0.150,0.136,0.213,0.203,0.209,0.122,0.077,north-northwest,7.1,No
2024/01/19,02:30,0.150,0.136,0.213,0.202,0.209,0.122,0.078,north-northwest,7.3,No
2024/01/19,02:40,0.150,0.136,0.213,0.202,0.208,0.121,0.078,north-northwest,7.9,No
2024/01/19,02:50,0.150,0.136,0.212,0.203,0.209,0.122,0.077,north-northwest,7.7,No
2024/01/19,03:00,0.150,0.136,0.214,0.202,0.209,0.122,0.077,north-northwest,7.4,No
2024/01/19,03:10,0.150,0.136,0.213,0.202,0.209,0.121,0.078,north-northwest,7.7,No
2024/01/19,03:20,0.151,0.136,0.212,0.202,0.208,0.121,0.078,north-northwest,7.0,No
2024/01/19,03:30,0.150,0.136,0.213,0.203,0.209,0.122,0.078,north-northwest,6.7,No
2024/01/19,03:40,0.151,0.135,0.214,0.203,0.209,0.121,0.078,north-northwest,6.7,No
2024/01/19,03:50,0.150,0.136,0.213,0.203,0.209,0.122,0.077,north-northwest,6.4,No
2024/01/19,04:00,0.150,0.136,0.213,0.202,0.209,0.122,0.077,north-northwest,5.9,No
2024/01/19,04:10,0.152,0.136,0.213,0.203,0.208,0.121,0.078,north-northwest,5.0,No
2024/01/19,04:20,0.151,0.135,0.213,0.202,0.209,0.122,0.078,north-northwest,5.5,No
2024/01/19,04:30,0.149,0.136,0.213,0.202,0.209,0.122,0.078,north-northwest,5.7,No
2024/01/19,04:40,0.150,0.135,0.212,0.202,0.209,0.122,0.078,north-northwest,6.8,No
2024/01/19,04:50,0.150,0.136,0.213,0.202,0.208,0.121,0.078,north-northwest,6.7,No
2024/01/19,05:00,0.150,0.136,0.212,0.202,0.209,0.121,0.078,north-northwest,7.6,No
2024/01/19,05:10,0.150,0.136,0.214,0.204,0.210,0.122,0.079,north-northwest,6.5,No
2024/01/19,05:20,0.151,0.137,0.213,0.203,0.210,0.121,0.078,north-northwest,6.5,No
2024/01/19,05:30,0.150,0.136,0.214,0.203,0.208,0.121,0.078,north-northwest,5.2,No
2024/01/19,05:40,0.151,0.137,0.215,0.202,0.209,0.121,0.078,north,5.6,No
2024/01/19,05:50,0.151,0.136,0.214,0.204,0.210,0.121,0.078,north,5.9,No
2024/01/19,06:00,0.151,0.136,0.214,0.203,0.209,0.122,0.078,north-northwest,6.4,No
2024/01/19,06:10,0.150,0.135,0.214,0.203,0.209,0.121,0.078,north-northwest,6.8,No
2024/01/19,06:20,0.150,0.136,0.214,0.202,0.209,0.122,0.078,north,6.0,No
2024/01/19,06:30,0.149,0.137,0.213,0.203,0.209,0.121,0.078,north-northwest,5.4,No
2024/01/19,06:40,0.151,0.136,0.214,0.203,0.210,0.122,0.079,north-northwest,6.1,No
2024/01/19,06:50,0.151,0.136,0.213,0.203,0.209,0.122,0.079,north-northwest,4.8,No
2024/01/19,07:00,0.150,0.136,0.213,0.202,0.209,0.122,0.078,north-northwest,3.9,No
2024/01/19,07:10,0.150,0.136,0.213,0.203,0.208,0.122,0.078,northwest,5.9,No
2024/01/19,07:20,0.150,0.136,0.213,0.203,0.209,0.122,0.078,north-northwest,7.5,No
2024/01/19,07:30,0.150,0.137,0.212,0.203,0.209,0.122,0.078,north-northwest,6.2,No
2024/01/19,07:40,0.150,0.136,0.213,0.203,0.209,0.121,0.078,north-northwest,5.5,No
2024/01/19,07:50,0.151,0.136,0.213,0.201,0.210,0.120,0.079,north-northwest,5.0,No
2024/01/19,08:00,0.149,0.136,0.213,0.203,0.209,0.121,0.078,north-northwest,5.2,No
2024/01/19,08:10,0.150,0.136,0.213,0.201,0.209,0.122,0.078,north,4.0,No
2024/01/19,08:20,0.150,0.136,0.213,0.202,0.209,0.122,0.078,north,3.6,No
2024/01/19,08:30,0.150,0.136,0.213,0.202,0.209,0.122,0.078,north,4.7,No
2024/01/19,08:40,0.150,0.136,0.213,0.202,0.209,0.121,0.079,north,4.5,No
2024/01/19,08:50,0.151,0.137,0.214,0.201,0.210,0.122,0.078,north,4.6,No
2024/01/19,09:00,0.150,0.136,0.215,0.202,0.208,0.122,0.078,north,4.5,No
2024/01/19,09:10,0.150,0.136,0.214,0.203,0.209,0.121,0.078,north,4.7,No
2024/01/19,09:20,0.151,0.135,0.213,0.202,0.209,0.120,0.078,north,5.6,No
2024/01/19,09:30,0.151,0.137,0.212,0.203,0.208,0.122,0.077,north,5.7,No
2024/01/19,09:40,0.151,0.137,0.213,0.202,0.209,0.122,0.078,north,6.1,No
2024/01/19,09:50,0.150,0.136,0.214,0.201,0.208,0.120,0.078,north,4.6,No
2024/01/19,10:00,0.150,0.136,0.213,0.201,0.209,0.122,0.078,north,5.1,No
2024/01/19,10:10,0.150,0.135,0.212,0.202,0.208,0.122,0.078,north-northwest,5.2,No
2024/01/19,10:20,0.150,0.136,0.214,0.201,0.208,0.122,0.078,north,5.4,No
2024/01/19,10:30,0.150,0.136,0.212,0.202,0.209,0.121,0.079,north,6.2,No
2024/01/19,10:40,0.150,0.136,0.213,0.202,0.207,0.122,0.077,north,6.7,No
2024/01/19,10:50,0.149,0.135,0.212,0.201,0.210,0.121,0.078,north,5.9,No
2024/01/19,11:00,0.149,0.136,0.212,0.204,0.209,0.122,0.077,north,6.4,No
2024/01/19,11:10,0.150,0.135,0.212,0.203,0.208,0.121,0.077,north,6.3,No
2024/01/19,11:20,0.149,0.135,0.213,0.203,0.210,0.122,0.079,north,7.0,No
2024/01/19,11:30,0.150,0.136,0.212,0.203,0.208,0.121,0.078,north,6.0,No
2024/01/19,11:40,0.149,0.135,0.212,0.202,0.209,0.123,0.078,north,7.7,No
2024/01/19,11:50,0.150,0.136,0.213,0.203,0.207,0.121,0.078,north,7.5,No
2024/01/19,12:00,0.150,0.135,0.213,0.202,0.209,0.121,0.078,north,9.2,No
2024/01/19,12:10,0.150,0.135,0.213,0.203,0.210,0.121,0.078,north,7.0,No
2024/01/19,12:20,0.149,0.135,0.213,0.201,0.208,0.121,0.078,north,6.4,No
2024/01/19,12:30,0.150,0.135,0.214,0.202,0.209,0.122,0.077,north,6.5,No
2024/01/19,12:40,0.150,0.135,0.212,0.203,0.209,0.121,0.078,north,7.3,No
2024/01/19,12:50,0.150,0.136,0.212,0.201,0.208,0.121,0.078,north-northeast,7.3,No
2024/01/19,13:00,0.149,0.136,0.213,0.202,0.210,0.121,0.077,north-northeast,6.6,No
2024/01/19,13:10,0.150,0.135,0.213,0.202,0.209,0.121,0.077,north,5.8,No
2024/01/19,13:20,0.150,0.136,0.214,0.201,0.209,0.121,0.078,north,7.0,No
2024/01/19,13:30,0.150,0.135,0.213,0.202,0.210,0.121,0.077,north,7.5,No
2024/01/19,13:40,0.149,0.135,0.213,0.201,0.209,0.120,0.077,north,8.1,No
2024/01/19,13:50,0.150,0.136,0.213,0.203,0.210,0.120,0.078,north,7.8,No
2024/01/19,14:00,0.150,0.136,0.213,0.202,0.210,0.122,0.077,north,6.4,No
2024/01/19,14:10,0.151,0.135,0.213,0.203,0.208,0.121,0.077,north-northeast,7.6,No
2024/01/19,14:20,0.150,0.135,0.213,0.202,0.209,0.121,0.078,north-northeast,7.9,No
2024/01/19,14:30,0.149,0.135,0.214,0.202,0.210,0.120,0.078,north,8.2,No
2024/01/19,14:40,0.150,0.135,0.214,0.203,0.208,0.121,0.077,north,7.8,No
2024/01/19,14:50,0.151,0.135,0.213,0.202,0.209,0.121,0.078,north-northeast,8.6,No
2024/01/19,15:00,0.151,0.136,0.213,0.202,0.211,0.121,0.077,north,7.5,No
2024/01/19,15:10,0.150,0.135,0.213,0.203,0.209,0.121,0.078,north,8.5,No
2024/01/19,15:20,0.150,0.136,0.214,0.203,0.208,0.120,0.077,north,8.8,No
2024/01/19,15:30,0.150,0.136,0.214,0.202,0.210,0.120,0.078,north,7.7,No
2024/01/19,15:40,0.150,0.136,0.213,0.202,0.210,0.121,0.077,north,6.6,No
2024/01/19,15:50,0.150,0.137,0.211,0.203,0.210,0.120,0.077,north,6.3,No
2024/01/19,16:00,0.151,0.136,0.213,0.203,0.211,0.122,0.078,north,8.5,No
2024/01/19,16:10,0.151,0.136,0.213,0.203,0.209,0.120,0.078,north,7.5,No
2024/01/19,16:20,0.150,0.136,0.213,0.203,0.209,0.121,0.078,north,7.9,No
2024/01/19,16:30,0.150,0.136,0.212,0.202,0.209,0.122,0.077,north,7.3,No
2024/01/19,16:40,0.149,0.136,0.213,0.202,0.209,0.121,0.078,north,5.6,No
2024/01/19,16:50,0.150,0.136,0.214,0.203,0.209,0.121,0.078,north,6.6,No
2024/01/19,17:00,0.151,0.137,0.214,0.203,0.209,0.122,0.078,north,7.0,No
2024/01/19,17:10,0.150,0.136,0.212,0.202,0.210,0.121,0.078,north-northwest,6.4,No
2024/01/19,17:20,0.150,0.136,0.213,0.203,0.210,0.121,0.078,north-northwest,6.0,No
2024/01/19,17:30,0.150,0.136,0.213,0.203,0.209,0.121,0.077,north,6.9,No
2024/01/19,17:40,0.151,0.136,0.214,0.203,0.209,0.121,0.077,north-northwest,6.5,No
2024/01/19,17:50,0.150,0.136,0.213,0.202,0.210,0.121,0.078,north-northwest,6.4,No
2024/01/19,18:00,0.151,0.135,0.212,0.202,0.209,0.121,0.078,north-northwest,7.4,No
2024/01/19,18:10,0.150,0.135,0.213,0.202,0.208,0.121,0.077,north-northwest,7.3,No
2024/01/19,18:20,0.151,0.135,0.214,0.203,0.209,0.121,0.078,north-northwest,6.8,No
2024/01/19,18:30,0.151,0.135,0.214,0.204,0.209,0.121,0.078,north-northwest,7.3,No
2024/01/19,18:40,0.151,0.136,0.214,0.202,0.209,0.121,0.077,north-northwest,7.3,No
2024/01/19,18:50,0.150,0.136,0.213,0.203,0.209,0.121,0.078,northwest,8.7,No
2024/01/19,19:00,0.150,0.137,0.214,0.203,0.210,0.122,0.078,north-northwest,7.8,No
2024/01/19,19:10,0.151,0.137,0.213,0.203,0.210,0.121,0.078,north-northwest,7.6,No
2024/01/19,19:20,0.150,0.136,0.214,0.203,0.210,0.120,0.078,north-northwest,7.6,No
2024/01/19,19:30,0.151,0.136,0.214,0.204,0.209,0.121,0.078,north-northwest,6.6,No
2024/01/19,19:40,0.150,0.136,0.215,0.204,0.209,0.121,0.078,north-northwest,6.7,No
2024/01/19,19:50,0.151,0.136,0.214,0.203,0.209,0.121,0.078,north-northwest,7.4,No
2024/01/19,20:00,0.150,0.136,0.213,0.203,0.209,0.121,0.078,north-northwest,8.5,No
2024/01/19,20:10,0.151,0.136,0.215,0.204,0.209,0.122,0.078,north-northwest,7.4,No
2024/01/19,20:20,0.150,0.136,0.215,0.203,0.209,0.121,0.078,northwest,8.2,No
2024/01/19,20:30,0.151,0.136,0.214,0.203,0.210,0.121,0.077,northwest,8.1,No
2024/01/19,20:40,0.150,0.136,0.215,0.202,0.209,0.121,0.078,northwest,8.5,No
2024/01/19,20:50,0.150,0.135,0.214,0.203,0.209,0.120,0.078,northwest,8.6,No
2024/01/19,21:00,0.150,0.135,0.213,0.204,0.210,0.121,0.078,northwest,8.4,No
2024/01/19,21:10,0.150,0.135,0.213,0.203,0.209,0.121,0.077,northwest,8.4,No
2024/01/19,21:20,0.151,0.136,0.213,0.204,0.209,0.122,0.078,northwest,7.3,No
2024/01/19,21:30,0.151,0.135,0.213,0.202,0.209,0.122,0.078,northwest,6.7,No
2024/01/19,21:40,0.150,0.136,0.215,0.203,0.208,0.121,0.078,northwest,6.2,No
2024/01/19,21:50,0.151,0.136,0.213,0.202,0.210,0.120,0.078,northwest,7.0,No
2024/01/19,22:00,0.150,0.136,0.214,0.203,0.208,0.121,0.078,north-northwest,7.5,No
2024/01/19,22:10,0.151,0.135,0.213,0.203,0.209,0.121,0.078,northwest,6.9,No
2024/01/19,22:20,0.150,0.137,0.213,0.203,0.210,0.121,0.077,northwest,7.0,No
2024/01/19,22:30,0.151,0.136,0.214,0.203,0.210,0.121,0.078,northwest,6.8,No
2024/01/19,22:40,0.150,0.136,0.214,0.203,0.210,0.121,0.078,northwest,5.0,No
2024/01/19,22:50,0.150,0.136,0.213,0.203,0.209,0.120,0.078,north-northwest,4.5,No
2024/01/19,23:00,0.151,0.136,0.214,0.203,0.208,0.120,0.077,northwest,2.3,No
2024/01/19,23:10,0.150,0.135,0.213,0.203,0.209,0.121,0.078,north-northwest,3.0,No
2024/01/19,23:20,0.151,0.137,0.213,0.203,0.209,0.121,0.077,north-northwest,4.0,No
2024/01/19,23:30,0.151,0.136,0.214,0.203,0.208,0.121,0.078,north-northwest,3.7,No
2024/01/19,23:40,0.151,0.137,0.214,0.204,0.208,0.120,0.078,north-northwest,3.0,No
2024/01/19,23:50,0.150,0.136,0.214,0.203,0.209,0.122,0.078,north-northwest,1.4,No
